Date,TemperatureHighF,TemperatureAvgF,TemperatureLowF,DewpointHighF,DewpointAvgF,DewpointLowF,HumidityHigh,HumidityAvg,HumidityLow,PressureMaxIn,PressureMinIn,WindSpeedMaxMPH,WindSpeedAvgMPH,GustSpeedMaxMPH,PrecipitationSumIn
2014-1-1,53,48,44,17,13,3,30,24,16,30.15,30.05,6,3,7,0.00
2014-1-2,57,52,49,24,19,15,33,27,25,30.14,30.00,3,0,4,0.00
2014-1-3,55,49,46,26,20,12,38,31,24,30.00,29.88,1,0,4,0.00
2014-1-4,54,48,44,26,19,5,37,32,19,30.02,29.89,3,1,8,0.00
2014-1-5,46,43,38,4,-5,-19,19,13,6,30.24,30.02,7,3,10,0.00
2014-1-6,50,44,37,9,4,-4,23,19,13,30.33,30.20,5,2,7,0.00
2014-1-7,53,49,46,20,9,-1,34,21,12,30.19,30.01,4,1,8,0.00
2014-1-8,53,46,42,23,14,3,37,28,16,30.07,29.98,6,2,10,0.00
2014-1-9,52,43,37,22,15,4,55,33,15,30.07,29.94,8,2,18,0.00
2014-1-10,59,52,41,28,23,16,43,33,22,30.19,30.05,4,1,6,0.00
2014-1-11,58,52,47,27,21,13,43,30,19,30.13,29.97,5,1,10,0.00
2014-1-12,49,41,37,31,21,6,73,47,22,30.26,29.93,9,3,13,0.00
2014-1-13,53,43,36,16,9,-3,31,25,12,30.44,30.27,5,2,11,0.00
2014-1-14,54,47,43,10,6,-3,22,18,12,30.42,30.29,8,2,14,0.00
2014-1-15,53,48,44,18,11,-2,26,22,11,30.34,30.21,5,2,9,0.00
2014-1-16,56,49,44,7,2,-8,20,14,7,30.23,30.11,4,2,10,0.00
2014-1-17,58,50,44,15,4,-10,20,15,7,30.21,30.10,8,2,10,0.00
2014-1-18,58,52,47,12,0,-14,18,12,6,30.13,30.03,4,1,7,0.00
2014-1-19,59,52,48,12,7,3,19,16,12,30.11,30.03,3,0,5,0.00
2014-1-20,57,50,47,14,10,6,23,19,17,30.22,30.07,3,0,8,0.00
2014-1-21,57,52,48,17,8,-5,26,17,9,30.21,30.08,2,0,3,0.00
2014-1-22,56,49,45,16,8,2,26,18,11,30.08,29.89,4,1,5,0.00
2014-1-23,53,48,44,16,6,-10,26,18,8,30.09,29.87,4,1,6,0.00
2014-1-24,52,48,44,28,10,-6,50,23,10,30.23,30.09,3,0,4,0.00
2014-1-25,52,47,44,32,27,22,55,46,36,30.19,30.11,2,0,4,0.00
2014-1-26,51,45,42,33,28,22,63,51,40,30.10,29.98,2,0,3,0.00
2014-1-27,52,45,39,32,18,5,75,36,19,30.08,29.96,6,1,8,0.00
2014-1-28,59,50,44,22,14,7,28,23,20,30.14,30.04,5,1,6,0.00
2014-1-29,62,54,48,33,27,17,51,36,26,30.08,29.88,3,0,4,0.00
2014-1-30,51,44,38,37,32,24,96,66,34,29.86,29.71,7,2,12,0.05
2014-1-31,38,33,27,37,31,18,97,93,66,29.92,29.73,10,2,11,0.32
2014-2-1,34,28,24,20,14,2,84,56,31,30.14,29.90,8,3,18,0.00
2014-2-2,38,31,26,27,14,0,94,52,28,30.14,29.95,5,2,9,0.00
2014-2-3,36,30,26,30,25,19,95,82,64,30.01,29.88,3,1,7,0.00
2014-2-4,34,30,27,30,28,20,95,90,67,30.12,30.01,2,0,3,0.00
2014-2-5,41,33,26,35,28,19,95,83,51,30.16,30.07,2,0,4,0.00
2014-2-6,36,32,30,33,30,19,97,92,51,30.09,29.98,3,1,7,0.00
2014-2-7,39,35,31,36,31,24,97,88,60,30.21,30.04,2,0,7,0.05
2014-2-8,55,46,36,42,36,25,82,69,52,30.28,30.16,9,3,16,0.00
2014-2-9,57,51,46,38,25,14,67,38,25,30.16,29.99,7,2,14,0.00
2014-2-10,51,45,39,38,34,32,87,67,49,30.03,29.94,9,4,15,0.00
2014-2-11,55,47,38,33,24,5,80,42,16,30.15,30.03,5,2,8,0.00
2014-2-12,63,54,45,25,17,1,27,23,14,30.17,30.07,7,2,9,0.00
2014-2-13,66,59,54,28,18,4,28,21,12,30.06,29.95,8,4,12,0.00
2014-2-14,68,59,53,22,9,2,18,14,8,30.02,29.94,6,2,11,0.00
2014-2-15,65,58,53,23,16,6,27,19,13,30.00,29.91,5,1,9,0.00
2014-2-16,60,53,48,25,20,10,35,28,17,30.02,29.89,8,1,12,0.00
2014-2-17,57,50,45,37,30,18,73,48,30,30.01,29.92,6,2,8,0.00
2014-2-18,58,51,46,25,16,8,34,25,19,30.01,29.92,4,1,7,0.00
2014-2-19,60,51,42,34,14,4,42,23,11,29.93,29.82,9,2,14,0.00
2014-2-20,57,49,37,31,19,6,75,34,15,30.06,29.91,6,1,9,0.00
2014-2-21,59,50,45,25,18,12,45,28,21,30.04,29.86,4,0,6,0.00
2014-2-22,58,49,44,26,22,15,43,34,29,29.90,29.83,2,0,4,0.00
2014-2-23,57,50,45,26,22,17,41,34,27,29.95,29.88,2,0,5,0.00
2014-2-24,59,51,46,33,24,16,53,36,23,29.96,29.88,4,1,6,0.00
2014-2-25,56,49,44,37,28,20,77,46,31,29.94,29.88,5,1,6,0.00
2014-2-26,50,42,38,39,31,21,96,69,40,30.00,29.90,4,2,7,0.00
2014-2-27,47,40,36,42,38,31,97,92,74,30.01,29.88,8,3,10,0.17
2014-2-28,45,39,32,44,38,28,97,95,66,29.88,29.49,16,7,24,2.03
2014-3-1,34,33,32,33,32,31,98,98,97,29.98,29.66,8,2,13,0.09
2014-3-2,37,35,32,36,34,32,99,98,98,30.20,30.00,3,1,5,0.39
2014-3-3,45,39,33,44,39,33,99,98,92,30.19,30.08,4,0,6,0.05
2014-3-4,50,44,39,41,34,25,95,69,48,30.09,29.95,6,1,13,0.00
2014-3-5,58,50,44,38,31,25,66,47,35,30.12,30.01,3,1,5,0.00
2014-3-6,57,50,43,46,34,12,89,58,22,30.02,29.88,3,0,6,0.00
2014-3-7,51,44,35,37,26,16,89,51,31,30.00,29.84,7,3,12,0.00
2014-10-12,73,64,58,33,20,-4,37,22,5,29.89,29.80,3,1,10,0.00
2014-10-13,59,58,58,14,13,12,17,16,15,29.91,29.89,3,2,7,0.00
2014-10-17,64,57,50,48,35,8,83,48,11,29.85,29.78,3,0,5,0.00
2014-10-18,62,56,51,49,26,1,68,37,12,29.84,29.76,3,1,4,0.00
2014-10-19,66,59,55,48,39,35,59,48,39,29.84,29.76,3,0,4,0.00
2014-10-20,65,58,53,46,41,34,75,53,42,29.84,29.77,3,0,6,0.00
2014-10-21,64,56,48,41,32,6,75,43,13,29.86,29.78,2,0,4,0.00
2014-10-22,70,61,55,28,20,4,28,20,12,29.94,29.84,2,0,4,0.00
2014-10-23,71,64,59,25,21,16,25,20,16,29.96,29.88,4,0,5,0.00
2014-10-24,71,62,55,36,30,22,47,31,21,29.95,29.86,4,1,6,0.00
2014-10-25,64,56,51,44,42,36,68,58,47,29.97,29.89,4,1,9,0.00
2014-10-26,58,52,46,42,37,22,81,59,31,29.93,29.80,3,1,7,0.00
2014-10-27,63,52,43,46,32,16,70,47,22,29.93,29.81,4,1,5,0.00
2014-10-28,64,56,50,36,31,26,56,39,30,30.02,29.92,0,0,5,0.00
2014-10-29,68,59,52,29,24,18,34,27,19,30.04,29.96,4,0,5,0.00
2014-10-30,65,58,51,41,27,12,70,33,16,29.97,29.83,3,0,5,0.00
2014-10-31,58,50,43,47,38,30,96,66,45,29.85,29.70,7,2,10,0.04
2014-11-1,43,37,33,42,36,33,97,97,96,29.95,29.63,10,3,15,0.46
2014-11-2,41,36,32,40,34,30,98,94,81,30.12,29.95,4,1,9,0.01
2014-11-3,48,40,33,28,17,7,73,43,23,30.22,30.09,4,1,11,0.00
2014-11-4,54,46,38,14,3,-11,35,18,7,30.29,30.19,5,1,11,0.00
2014-11-5,65,53,45,30,14,-8,33,21,9,30.22,30.10,6,2,10,0.00
2014-11-6,65,58,52,28,22,14,33,26,17,30.22,30.10,2,0,6,0.00
2014-11-7,66,58,54,23,17,5,27,20,12,30.12,30.00,3,0,5,0.00
2014-11-8,68,62,56,27,22,16,28,22,17,30.06,29.95,3,0,5,0.00
2014-11-9,67,60,54,31,25,20,37,27,22,29.96,29.73,2,0,5,0.00
2014-11-10,59,54,50,39,25,17,60,34,23,29.77,29.71,2,0,4,0.00
2014-11-11,62,54,40,43,25,15,93,36,19,29.80,29.73,1,0,8,0.00
2014-11-12,57,51,39,41,25,6,94,40,15,29.93,29.76,4,1,10,0.00
2014-11-13,57,52,42,45,36,20,92,59,26,29.93,29.86,5,1,11,0.00
2014-11-14,53,47,41,45,35,16,93,68,26,29.99,29.86,5,1,7,0.00
2014-11-15,51,46,41,43,28,5,93,58,15,30.00,29.91,5,1,8,0.00
2014-11-16,46,38,34,31,3,-18,88,29,7,30.25,29.94,8,3,13,0.00
2014-11-17,48,40,32,9,2,-7,24,20,13,30.27,30.17,7,3,8,0.00
2014-11-18,56,48,40,15,3,-10,23,16,8,30.23,30.11,5,2,9,0.00
2014-11-19,53,46,41,24,8,-1,50,21,14,30.11,30.03,3,1,5,0.00
2014-11-20,49,43,39,38,33,17,95,70,37,30.06,29.92,5,0,9,0.00
2014-11-21,45,39,34,38,34,22,96,83,44,30.12,29.86,5,2,11,0.57
2014-11-22,53,48,41,39,29,18,65,48,34,30.14,29.97,9,2,12,0.00
2014-11-23,49,43,37,36,11,-22,92,36,5,30.22,29.95,9,3,18,0.00
2014-11-24,49,44,38,14,3,-21,25,18,5,30.37,30.19,5,2,9,0.00
2014-11-25,57,50,40,17,-7,-35,24,11,2,30.44,30.32,4,1,7,0.00
2014-11-26,66,59,54,20,13,-3,26,17,7,30.31,30.16,4,1,8,0.00
2014-11-27,69,62,59,19,4,-7,16,10,6,30.15,29.97,3,0,4,0.00
2014-11-28,63,58,51,16,8,-2,21,14,8,29.96,29.81,3,1,5,0.00
2014-11-29,56,50,43,28,17,-6,52,27,11,29.85,29.76,6,2,8,0.00
2014-11-30,42,40,36,41,34,-3,97,85,14,30.11,29.79,6,2,11,0.11
2014-12-1,50,45,39,42,35,18,97,71,29,30.21,30.07,3,1,6,0.01
2014-12-2,51,45,40,47,36,10,97,76,19,30.07,29.82,7,3,13,1.01
2014-12-3,49,47,44,48,46,43,98,98,97,30.00,29.88,5,2,11,0.92
2014-12-4,48,43,38,48,42,30,99,95,67,30.06,29.87,4,1,11,0.69
2014-12-5,47,43,40,41,37,29,97,80,59,30.15,30.04,4,1,7,0.00
2014-12-6,50,44,40,45,40,31,97,86,54,30.23,30.11,5,1,5,0.00
2014-12-7,55,49,43,43,34,29,92,58,45,30.24,30.11,2,0,5,0.00
2014-12-13,32,30,29,31,28,27,97,93,85,30.18,30.14,2,2,6,0.02
2014-12-14,42,36,32,34,28,22,90,74,58,30.19,30.10,3,1,4,0.19
2014-12-15,40,37,33,30,27,24,88,67,55,30.10,30.01,4,2,6,0.05
2014-12-16,38,36,33,36,32,25,97,88,70,30.06,29.98,4,2,8,0.45
2014-12-17,35,33,31,34,32,30,97,97,97,30.16,29.95,4,1,7,0.06
2014-12-18,37,32,28,34,30,25,97,90,75,30.29,30.13,1,0,6,0.04
2014-12-19,43,39,33,37,24,0,82,58,18,30.30,30.19,4,0,6,0.16
2014-12-20,45,41,38,37,32,25,95,70,57,30.20,30.10,5,2,11,0.18
2014-12-21,57,45,37,40,37,33,96,75,43,30.21,30.06,7,2,10,0.00
2014-12-22,62,52,41,36,29,21,81,43,24,30.12,30.00,5,2,13,0.00
2014-12-23,57,50,46,30,25,18,50,38,28,30.12,30.02,4,1,10,0.00
2014-12-24,52,46,35,33,26,14,83,48,23,30.09,29.72,5,1,8,0.00